This is the latest recevied weather packets stored in our database for station/object KM4NDN. If no packets are shown the sender has not sent any weather packets the latest 10 day(s).
| Time | Temp. | Humidity | Pressure | Rain* | Wind** | Luminosity | Snow |
|---|---|---|---|---|---|---|---|
| 1778010016 | 13.33° C | 93% | 1006.8 hPa | 4.83 mm | - | 39 W/m² | - |
| 1778009714 | 13.33° C | 93% | 1006.7 hPa | 3.05 mm | - | 47 W/m² | - |
| 1778009411 | 13.33° C | 92% | 1006.6 hPa | 1.27 mm | - | 74 W/m² | - |
| 1778009109 | 13.33° C | 92% | 1006.4 hPa | 1.78 mm | - | 87 W/m² | - |
| 1778008807 | 13.33° C | 92% | 1006.4 hPa | 1.78 mm | - | 64 W/m² | - |
| 1778008505 | 13.33° C | 92% | 1006.3 hPa | 1.78 mm | - | 61 W/m² | - |
| 1778008202 | 13.33° C | 91% | 1006.3 hPa | 1.27 mm | - | 101 W/m² | - |
| 1778007897 | 13.33° C | 91% | 1006 hPa | 8.89 mm | - | 140 W/m² | - |
| 1778007593 | 13.33° C | 91% | 1006.4 hPa | 6.1 mm | - | 103 W/m² | - |
| 1778007290 | 13.89° C | 89% | 1006.2 hPa | 0 mm | - | 79 W/m² | - |
| 1778006986 | 13.89° C | 89% | 1006.3 hPa | 0 mm | - | 79 W/m² | - |
| 1778006683 | 13.89° C | 89% | 1006 hPa | 1.27 mm | - | 79 W/m² | - |
| 1778006379 | 13.89° C | 89% | 1006 hPa | 3.05 mm | - | 76 W/m² | - |
| 1778006077 | 13.89° C | 89% | 1006.3 hPa | 1.78 mm | - | 69 W/m² | - |
| 1778005773 | 14.44° C | 89% | 1006 hPa | 3.05 mm | - | 75 W/m² | - |
| 1778005471 | 14.44° C | 88% | 1006.3 hPa | 1.78 mm | - | 68 W/m² | - |
| 1778005166 | 14.44° C | 87% | 1006.4 hPa | 1.27 mm | - | 72 W/m² | - |
| 1778004864 | 14.44° C | 86% | 1006.3 hPa | 1.78 mm | - | 77 W/m² | - |
| 1778004561 | 14.44° C | 84% | 1006.3 hPa | 1.78 mm | - | 79 W/m² | - |
| 1778004257 | 15° C | 83% | 1005.9 hPa | 1.78 mm | - | 79 W/m² | - |
| 1778003954 | 15° C | 81% | 1006.2 hPa | 1.78 mm | - | 91 W/m² | - |
| 1778003650 | 15° C | 79% | 1006 hPa | 0 mm | - | 118 W/m² | - |
| 1778003346 | 15.56° C | 76% | 1005.9 hPa | 0 mm | - | 98 W/m² | - |
| 1778003044 | 15.56° C | 74% | 1006 hPa | 0 mm | - | 98 W/m² | - |
| 1778002740 | 15.56° C | 73% | 1005.9 hPa | 0 mm | - | 76 W/m² | - |
* Rain latest hour (hover to see other rain measurements)
** Current wind speed in m/s (hover to see current wind gust speed)